Time,TemperatureF,DewpointF,PressureIn,WindDirection,WindDirectionDegrees,WindSpeedMPH,WindSpeedGustMPH,Humidity,HourlyPrecipIn,Conditions,Clouds,dailyrainin,SoftwareType,DateUTC
2013-12-30 00:23:00,42.0,36.0,29.66,WNW,298,3.0,3.0,80,0.00,,,1.30,,2013-12-30 05:23:00,
2013-12-30 00:33:00,42.0,36.0,29.66,WNW,298,3.0,3.0,80,0.00,,,1.30,,2013-12-30 05:33:00,
2013-12-30 00:43:00,42.0,36.0,29.66,WNW,298,3.0,3.0,80,0.00,,,1.30,,2013-12-30 05:43:00,
2013-12-30 00:53:00,41.0,36.0,29.67,WNW,285,5.0,10.0,81,0.00,,,1.30,,2013-12-30 05:53:00,
2013-12-30 01:12:00,41.0,36.0,29.68,WNW,284,3.0,4.0,81,0.00,,,1.30,,2013-12-30 06:12:00,
2013-12-30 01:23:00,41.0,36.0,29.68,WNW,284,3.0,4.0,81,0.00,,,1.30,,2013-12-30 06:23:00,
2013-12-30 01:32:00,41.0,36.0,29.68,WNW,284,3.0,4.0,81,0.00,,,1.30,,2013-12-30 06:32:00,
2013-12-30 01:53:00,40.0,35.0,29.72,SSW,192,2.0,3.0,83,0.00,,,1.30,,2013-12-30 06:53:00,
2013-12-30 02:21:00,40.0,35.0,29.74,South,186,2.0,3.0,83,0.00,,,1.30,,2013-12-30 07:21:00,
2013-12-30 02:42:00,40.0,35.0,29.74,South,188,0.0,3.0,83,0.00,,,1.30,,2013-12-30 07:42:00,
2013-12-30 02:52:00,40.0,36.0,29.75,SW,220,2.0,4.0,84,0.00,,,1.30,,2013-12-30 07:52:00,
2013-12-30 03:22:00,39.0,35.0,29.74,SW,219,2.0,3.0,85,0.00,,,1.30,,2013-12-30 08:22:00,
2013-12-30 03:32:00,39.0,35.0,29.74,SW,219,2.0,3.0,85,0.00,,,1.30,,2013-12-30 08:32:00,
2013-12-30 03:42:00,39.0,35.0,29.74,SW,219,2.0,3.0,85,0.00,,,1.30,,2013-12-30 08:42:00,
2013-12-30 03:52:00,40.0,36.0,29.75,West,265,3.0,3.0,85,0.00,,,1.30,,2013-12-30 08:52:00,
2013-12-30 04:22:00,39.0,35.0,29.74,West,269,0.0,1.0,85,0.00,,,1.30,,2013-12-30 09:22:00,
2013-12-30 04:33:00,39.0,35.0,29.74,West,269,0.0,1.0,85,0.00,,,1.30,,2013-12-30 09:33:00,
2013-12-30 04:43:00,39.0,35.0,29.74,West,269,0.0,1.0,85,0.00,,,1.30,,2013-12-30 09:43:00,
2013-12-30 04:53:00,39.0,35.0,29.76,SSW,201,2.0,3.0,86,0.00,,,1.30,,2013-12-30 09:53:00,
2013-12-30 05:12:00,38.0,34.0,29.76,SW,217,1.0,3.0,86,0.00,,,1.30,,2013-12-30 10:12:00,
2013-12-30 05:23:00,38.0,34.0,29.76,SW,217,1.0,3.0,86,0.00,,,1.30,,2013-12-30 10:23:00,
2013-12-30 05:33:00,38.0,34.0,29.76,SW,217,1.0,3.0,86,0.00,,,1.30,,2013-12-30 10:33:00,
2013-12-30 05:53:00,38.0,34.0,29.77,SSW,210,1.0,2.0,87,0.00,,,1.30,,2013-12-30 10:53:00,
2013-12-30 06:02:00,38.0,34.0,29.77,SSW,210,1.0,2.0,87,0.00,,,1.30,,2013-12-30 11:02:00,
2013-12-30 06:22:00,38.0,35.0,29.79,SW,231,0.0,2.0,88,0.00,,,1.30,,2013-12-30 11:22:00,
2013-12-30 06:33:00,38.0,35.0,29.79,SW,231,0.0,2.0,88,0.00,,,1.30,,2013-12-30 11:33:00,
2013-12-30 06:53:00,39.0,35.0,29.81,South,178,3.0,3.0,86,0.00,,,1.30,,2013-12-30 11:53:00,
2013-12-30 07:12:00,39.0,35.0,29.81,South,187,2.0,3.0,87,0.00,,,1.30,,2013-12-30 12:12:00,
2013-12-30 07:22:00,39.0,35.0,29.81,South,187,2.0,3.0,87,0.00,,,1.30,,2013-12-30 12:22:00,
2013-12-30 07:42:00,40.0,36.0,29.83,SSW,200,2.0,3.0,86,0.00,,,1.30,,2013-12-30 12:42:00,
2013-12-30 07:52:00,41.0,37.0,29.84,SSW,209,1.0,3.0,86,0.00,,,1.30,,2013-12-30 12:52:00,
2013-12-30 08:22:00,41.0,37.0,29.85,SW,214,0.0,3.0,85,0.00,,,1.30,,2013-12-30 13:22:00,
2013-12-30 08:32:00,41.0,37.0,29.85,SW,214,0.0,3.0,85,0.00,,,1.30,,2013-12-30 13:32:00,
2013-12-30 08:42:00,41.0,37.0,29.85,SW,214,0.0,3.0,85,0.00,,,1.30,,2013-12-30 13:42:00,
2013-12-30 08:52:00,42.0,37.0,29.87,WSW,243,2.0,5.0,83,0.00,,,1.30,,2013-12-30 13:52:00,
2013-12-30 09:22:00,42.0,36.0,29.89,SW,228,0.0,4.0,80,0.00,,,1.30,,2013-12-30 14:22:00,
2013-12-30 09:52:00,43.0,36.0,29.89,WNW,287,2.0,6.0,75,0.00,,,1.30,,2013-12-30 14:52:00,
2013-12-30 10:02:00,43.0,36.0,29.89,WNW,287,2.0,6.0,75,0.00,,,1.30,,2013-12-30 15:02:00,
2013-12-30 10:22:00,44.0,35.0,29.91,WNW,299,6.0,10.0,70,0.00,,,1.30,,2013-12-30 15:22:00,
2013-12-30 10:54:00,43.0,32.0,29.93,NNW,330,7.0,13.0,65,0.00,,,1.30,,2013-12-30 15:54:00,
2013-12-30 11:23:00,42.0,31.0,29.94,NW,325,6.0,14.0,65,0.00,,,1.30,,2013-12-30 16:23:00,
2013-12-30 11:43:00,41.0,31.0,29.94,NW,320,10.0,11.0,66,0.00,,,1.30,,2013-12-30 16:43:00,
2013-12-30 11:53:00,40.0,29.0,29.94,NNW,335,4.0,15.0,65,0.00,,,1.30,,2013-12-30 16:53:00,
2013-12-30 12:02:00,40.0,29.0,29.94,NNW,335,4.0,15.0,65,0.00,,,1.30,,2013-12-30 17:02:00,
2013-12-30 12:22:00,40.0,27.0,29.95,NW,319,10.0,17.0,60,0.00,,,1.29,,2013-12-30 17:22:00,
2013-12-30 12:43:00,39.0,25.0,29.95,NNW,330,6.0,17.0,57,0.00,,,1.28,,2013-12-30 17:43:00,
2013-12-30 12:52:00,39.0,26.0,29.95,North,352,10.0,10.0,59,0.00,,,1.24,,2013-12-30 17:52:00,
2013-12-30 13:21:00,38.0,24.0,29.97,NW,323,9.0,10.0,57,0.00,,,1.06,,2013-12-30 18:21:00,
2013-12-30 13:22:00,38.0,24.0,29.97,North,356,5.0,17.0,57,0.00,,,1.14,,2013-12-30 18:22:00,
2013-12-30 13:43:00,38.0,24.0,29.97,NNW,331,6.0,11.0,57,0.00,,,1.10,,2013-12-30 18:43:00,
2013-12-30 13:52:00,38.0,24.0,29.97,NW,323,9.0,10.0,57,0.00,,,1.06,,2013-12-30 18:52:00,
2013-12-30 14:02:00,38.0,24.0,29.97,NW,323,9.0,10.0,57,0.00,,,1.06,,2013-12-30 19:02:00,
2013-12-30 14:12:00,38.0,24.0,29.97,NW,323,9.0,10.0,57,0.00,,,1.06,,2013-12-30 19:12:00,
2013-12-30 14:52:00,37.0,21.0,29.99,North,359,8.0,16.0,53,0.00,,,0.80,,2013-12-30 19:52:00,
2013-12-30 15:22:00,37.0,21.0,30.01,North,354,5.0,10.0,51,0.00,,,0.72,,2013-12-30 20:22:00,
2013-12-30 15:52:00,35.0,19.0,30.04,NNW,332,11.0,16.0,51,0.00,,,0.49,,2013-12-30 20:52:00,
2013-12-30 16:22:00,34.0,17.0,30.06,NNW,329,8.0,15.0,49,0.00,,,0.32,,2013-12-30 21:22:00,
2013-12-30 16:33:00,34.0,17.0,30.06,NNW,329,8.0,15.0,49,0.00,,,0.32,,2013-12-30 21:33:00,
2013-12-30 16:54:00,33.0,16.0,30.07,NW,323,10.0,13.0,50,0.00,,,0.16,,2013-12-30 21:54:00,
2013-12-30 17:23:00,32.0,15.0,30.08,NNW,344,2.0,6.0,50,0.00,,,0.09,,2013-12-30 22:23:00,
2013-12-30 17:43:00,32.0,15.0,30.09,North,0,3.0,13.0,49,0.00,,,0.04,,2013-12-30 22:43:00,
2013-12-30 17:53:00,31.0,13.0,30.09,NNW,335,7.0,10.0,47,0.00,,,0.01,,2013-12-30 22:53:00,
2013-12-30 18:22:00,30.0,13.0,30.10,North,359,5.0,10.0,48,0.00,,,0.00,,2013-12-30 23:22:00,
2013-12-30 18:42:00,29.0,11.0,30.11,North,356,9.0,14.0,47,0.00,,,0.00,,2013-12-30 23:42:00,
2013-12-30 18:53:00,29.0,12.0,30.11,NNW,335,4.0,12.0,48,0.00,,,0.00,,2013-12-30 23:53:00,
2013-12-30 19:02:00,29.0,12.0,30.11,NNW,335,4.0,12.0,48,0.00,,,0.00,,2013-12-31 00:02:00,
2013-12-30 19:22:00,28.0,11.0,30.12,North,358,11.0,11.0,49,0.00,,,0.00,,2013-12-31 00:22:00,
2013-12-30 19:32:00,28.0,11.0,30.12,North,358,11.0,11.0,49,0.00,,,0.00,,2013-12-31 00:32:00,
2013-12-30 19:42:00,28.0,11.0,30.12,North,358,11.0,11.0,49,0.00,,,0.00,,2013-12-31 00:42:00,
2013-12-30 19:52:00,28.0,11.0,30.12,North,358,11.0,11.0,49,0.00,,,0.00,,2013-12-31 00:52:00,
2013-12-30 20:22:00,27.0,10.0,30.14,North,351,6.0,11.0,48,0.00,,,0.00,,2013-12-31 01:22:00,
2013-12-30 20:42:00,27.0,10.0,30.14,North,0,3.0,12.0,49,0.00,,,0.00,,2013-12-31 01:42:00,
2013-12-30 20:52:00,27.0,10.0,30.14,North,0,3.0,12.0,49,0.00,,,0.00,,2013-12-31 01:52:00,
2013-12-30 21:22:00,26.0,10.0,30.16,North,352,2.0,13.0,50,0.00,,,0.00,,2013-12-31 02:22:00,
2013-12-30 21:52:00,25.0,9.0,30.17,North,359,3.0,11.0,49,0.00,,,0.00,,2013-12-31 02:52:00,
2013-12-30 22:22:00,24.0,8.0,30.17,North,3,4.0,6.0,50,0.00,,,0.00,,2013-12-31 03:22:00,
2013-12-30 22:43:00,24.0,8.0,30.17,North,349,6.0,6.0,49,0.00,,,0.00,,2013-12-31 03:43:00,
2013-12-30 22:53:00,24.0,8.0,30.17,North,349,6.0,6.0,49,0.00,,,0.00,,2013-12-31 03:53:00,
2013-12-30 23:23:00,24.0,8.0,30.17,North,349,3.0,6.0,50,0.00,,,0.00,,2013-12-31 04:23:00,
2013-12-30 23:43:00,23.0,8.0,30.16,North,2,8.0,10.0,51,0.00,,,0.00,,2013-12-31 04:43:00,
2013-12-30 23:53:00,23.0,8.0,30.16,North,2,8.0,10.0,51,0.00,,,0.00,,2013-12-31 04:53:00,